Location: Newark
(35.6799°N, 139.7636°E)
Time: 18:03:49
(UTC+00:00)

Explorer 7 - Pass Details

Date: 08 December 2019
Orbit: 485 x 679 km, 50.3° (Epoch: 27 January)

Event Time Altitude Azimuth Distance (km) Brightness Sun altitude
Rises 04:59:04 0° 175° (S) 2,931 11.3 22.1°
Reaches altitude 10° 05:03:08 10° 140° (SE) 2,066 10.0 21.6°
Maximum altitude 05:04:29 11° 124° (SE) 2,004 9.7 21.5°
Drops below altitude 10° 05:05:51 10° 107° (ESE) 2,089 9.6 21.3°
Sets 05:10:02 0° 73° (ENE) 3,027 10.1 20.8°
